TimeEDT,TemperatureF,Dew PointF,Humidity,Sea Level PressureIn,VisibilityMPH,Wind Direction,Wind SpeedMPH,Gust SpeedMPH,PrecipitationIn,Events,Conditions,WindDirDegrees,DateUTC
12:53 AM,81.0,75.0,82,-9999,-9999.0,NE,3.5,-,N/A,,Clear,50,2013-09-09 04:53:00
1:53 AM,81.0,75.0,82,-9999,-9999.0,ENE,5.8,-,N/A,,Clear,60,2013-09-09 05:53:00
2:53 AM,80.1,73.9,81,-9999,-9999.0,East,4.6,-,N/A,,Clear,80,2013-09-09 06:53:00
3:53 AM,80.1,75.9,87,-9999,-9999.0,NE,5.8,-,N/A,,Clear,50,2013-09-09 07:53:00
4:53 AM,81.0,75.9,85,-9999,-9999.0,ENE,4.6,-,N/A,,Clear,60,2013-09-09 08:53:00
5:53 AM,81.0,75.9,85,-9999,-9999.0,East,6.9,-,N/A,,Clear,80,2013-09-09 09:53:00
5:59 AM,80.6,75.2,84,-9999,10.0,East,9.2,-,N/A,,Overcast,80,2013-09-09 09:59:00
6:53 AM,79.0,75.9,90,29.91,10.0,NE,4.6,-,0.01,,Mostly Cloudy,50,2013-09-09 10:53:00
7:29 AM,75.2,71.6,89,-9999,2.0,ENE,10.4,25.3,0.14,Rain,Rain,70,2013-09-09 11:29:00
7:39 AM,73.4,71.6,94,29.91,5.0,ESE,6.9,-,0.36,Rain,Light Rain,120,2013-09-09 11:39:00
7:53 AM,77.0,71.1,82,29.91,10.0,NE,3.5,-,0.37,Rain,Light Rain,40,2013-09-09 11:53:00
8:53 AM,81.0,77.0,88,29.94,10.0,East,4.6,-,0.00,,Mostly Cloudy,100,2013-09-09 12:53:00
9:53 AM,84.0,75.0,74,29.96,10.0,ENE,5.8,-,N/A,,Scattered Clouds,70,2013-09-09 13:53:00
10:53 AM,86.0,77.0,74,29.97,10.0,East,9.2,-,N/A,,Scattered Clouds,100,2013-09-09 14:53:00
11:53 AM,87.1,75.0,67,29.98,10.0,East,9.2,-,N/A,,Scattered Clouds,80,2013-09-09 15:53:00
12:53 PM,84.9,75.0,72,29.97,10.0,NE,8.1,-,N/A,,Scattered Clouds,50,2013-09-09 16:53:00
1:05 PM,82.4,78.8,89,29.97,7.0,North,5.8,-,0.02,Rain,Light Rain,360,2013-09-09 17:05:00
1:20 PM,84.2,77.0,79,29.96,10.0,East,9.2,-,0.02,,Mostly Cloudy,100,2013-09-09 17:20:00
1:53 PM,84.9,75.9,74,29.96,10.0,East,9.2,-,0.02,,Mostly Cloudy,100,2013-09-09 17:53:00
2:53 PM,84.9,75.9,74,29.94,10.0,East,9.2,-,N/A,,Mostly Cloudy,90,2013-09-09 18:53:00
3:53 PM,87.1,75.9,69,29.92,10.0,ENE,9.2,-,N/A,,Scattered Clouds,70,2013-09-09 19:53:00
4:53 PM,87.1,75.0,67,29.91,10.0,ESE,9.2,-,N/A,,Scattered Clouds,120,2013-09-09 20:53:00
5:53 PM,84.9,73.9,69,29.92,10.0,ESE,9.2,-,N/A,,Scattered Clouds,110,2013-09-09 21:53:00
6:38 PM,78.8,73.4,83,29.94,10.0,East,20.7,28.8,0.01,Rain,Light Rain,90,2013-09-09 22:38:00
6:53 PM,78.1,75.0,90,29.94,10.0,NE,5.8,-,0.17,Rain,Light Rain,50,2013-09-09 22:53:00
7:15 PM,80.6,75.2,84,29.95,10.0,Calm,Calm,-,0.02,,Mostly Cloudy,0,2013-09-09 23:15:00
7:53 PM,80.1,77.0,90,29.94,10.0,Calm,Calm,-,0.02,,Mostly Cloudy,0,2013-09-09 23:53:00
8:53 PM,81.0,75.9,85,29.96,10.0,East,9.2,-,N/A,,Scattered Clouds,90,2013-09-10 00:53:00
9:53 PM,81.0,75.9,85,29.96,10.0,East,8.1,-,N/A,,Scattered Clouds,90,2013-09-10 01:53:00
10:53 PM,81.0,75.0,82,29.96,10.0,East,8.1,-,N/A,,Clear,80,2013-09-10 02:53:00
11:53 PM,82.0,75.9,82,29.96,10.0,East,5.8,-,N/A,,Clear,80,2013-09-10 03:53:00